Waarnemingen

Advertentie
Mijn weer
Brest, Frankrijk (7110): temperatuur & dauwpunt: 10.07.2019 04:00:00 - 16.07.2019 04:00:00 (CEST)Brest, Frankrijk (7110): temperatuur 5cm: 10.07.2019 04:00:00 - 16.07.2019 04:00:00 (CEST)Brest, Frankrijk (7110): temperatuur -20cm & temperatuur -100cm: 10.07.2019 04:00:00 - 16.07.2019 04:00:00 (CEST)Brest, Frankrijk (7110): windsnelheid & windstoten: 10.07.2019 04:00:00 - 16.07.2019 04:00:00 (CEST)Brest, Frankrijk (7110): windrichting: 10.07.2019 04:00:00 - 16.07.2019 04:00:00 (CEST)Brest, Frankrijk (7110): luchtdruk: 10.07.2019 04:00:00 - 16.07.2019 04:00:00 (CEST)Brest, Frankrijk (7110): zicht: 10.07.2019 04:00:00 - 16.07.2019 04:00:00 (CEST)Brest, Frankrijk (7110): Zonneschijnduur: 10.07.2019 04:00:00 - 16.07.2019 04:00:00 (CEST)Brest, Frankrijk (7110): neerslag: 10.07.2019 04:00:00 - 16.07.2019 04:00:00 (CEST)
Datum & Tijd tt [°C] td [°C] tt 5cm [°C] tt -20cm [°C] tt -100cm [°C] ff [km/u] ff [kn] fx [km/u] fx [kn] dd ppp [hPa] vv [km] sd [min] rr [mm]
16.07.2019 04:00:00 10,7 9,6 5,3 18,7 16,4 2 1 6 3 ZZO 1020,0 17 0 0,0
16.07.2019 03:00:00 11,8 10,9 5,9 18,8 16,4 3 2 6 3 ZO 1020,2 10 0 0,0
16.07.2019 02:00:00 12,5 11,2 6,8 18,9 16,4 6 3 10 5 O 1020,5 16 0 0,0
16.07.2019 01:00:00 13,6 12,3 8,6 18,9 16,4 9 5 11 6 ONO 1020,7 17 0 0,0
16.07.2019 00:00:00 14,3 12,5 12,0 19,0 16,4 9 5 16 8 NO 1020,7 19 0 0,0
15.07.2019 23:00:00 15,2 12,7 13,6 19,0 16,4 10 6 21 12 NNO 1020,7 27 0 0,0
15.07.2019 22:00:00 16,4 12,7 15,3 19,0 16,4 12 7 21 12 NNO 1020,3 33 0 0,0
15.07.2019 21:00:00 18,4 13,0 18,4 18,9 16,4 13 7 26 14 NNO 1020,2 49 34 0,0
15.07.2019 20:00:00 20,3 13,3 24,9 18,8 16,4 13 7 30 16 NNO 1019,7 38 60 0,0
15.07.2019 19:00:00 21,4 13,1 27,6 18,7 16,4 18 10 33 18 NO 1019,4 39 60 0,0
15.07.2019 18:00:00 22,8 12,1 29,8 18,6 16,4 22 12 33 18 NO 1019,5 36 43 0,0
15.07.2019 17:00:00 23,4 12,4 32,1 18,4 16,4 20 11 34 18 NO 1019,8 43 33 0,0
15.07.2019 16:00:00 23,8 11,1 31,2 18,3 16,4 8 4 25 14 ONO 1019,9 31 60 0,0
15.07.2019 15:00:00 23,3 11,0 41,6 18,2 16,4 11 6 27 15 NNO 1020,1 31 55 0,0
15.07.2019 14:00:00 23,0 11,7 38,8 18,1 16,4 13 7 30 16 ONO 1020,4 32 60 0,0
15.07.2019 13:00:00 22,5 11,9 34,5 18,1 16,4 13 7 26 14 OZO 1020,7 32 60 0,0
15.07.2019 12:00:00 21,8 11,5 31,3 18,1 16,4 14 8 31 17 O 1020,9 27 60 0,0
15.07.2019 11:00:00 20,1 11,3 26,8 18,1 16,4 19 11 31 17 O 1021,2 27 60 0,0
15.07.2019 10:00:00 19,1 11,4 18,8 18,2 16,4 23 12 32 17 O 1021,4 24 60 0,0
15.07.2019 09:00:00 17,2 10,8 14,3 18,2 16,4 19 10 29 15 O 1021,1 27 60 0,0
15.07.2019 08:00:00 15,6 10,1 11,8 18,3 16,4 21 11 31 17 O 1021,0 38 60 0,0
15.07.2019 07:00:00 14,0 9,0 11,3 18,4 16,3 14 8 28 15 O 1020,9 54 9 0,0
15.07.2019 06:00:00 14,4 8,8 11,7 18,5 16,4 22 12 32 18 O 1020,5 60 0 0,0
15.07.2019 05:00:00 14,7 9,7 10,8 18,5 16,4 19 10 25 14 O 1020,6 60 0 0,0
15.07.2019 04:00:00 14,0 10,8 10,3 18,6 16,4 12 6 21 11 O 1020,9 50 0 0,0
15.07.2019 03:00:00 13,8 11,0 10,6 18,7 16,4 8 4 20 11 ONO 1021,2 40 0 0,0
15.07.2019 02:00:00 14,2 11,2 11,8 18,8 16,4 15 8 23 13 ONO 1021,0 36 0 0,0
15.07.2019 01:00:00 14,7 11,1 12,0 18,8 16,4 14 8 24 13 ONO 1021,0 41 0 0,0
15.07.2019 00:00:00 15,5 10,9 13,1 18,9 16,4 12 6 21 12 ONO 1021,0 54 0 0,0
14.07.2019 23:00:00 16,1 12,6 14,1 18,9 16,3 11 6 25 13 NO 1020,9 47 3 0,0
14.07.2019 22:00:00 17,9 13,0 16,2 18,8 16,4 18 10 34 19 NO 1020,5 54 60 0,0
14.07.2019 21:00:00 20,5 12,2 20,6 18,8 16,4 21 12 40 22 NO 1020,1 43 60 0,0
14.07.2019 20:00:00 21,9 12,7 26,3 18,7 16,3 25 13 44 24 NO 1019,8 28 60 0,0
14.07.2019 19:00:00 22,8 13,8 30,0 18,6 16,3 28 15 44 24 NO 1019,6 20 60 0,0
14.07.2019 18:00:00 23,4 13,8 32,5 18,5 16,3 29 15 50 27 NO 1019,7 29 60 0,0
14.07.2019 17:00:00 23,6 14,0 28,1 18,3 16,3 27 14 46 25 NO 1019,6 19 54 0,0
14.07.2019 16:00:00 23,8 13,9 29,6 18,2 16,4 24 13 45 25 NO 1019,5 30 43 0,0
14.07.2019 15:00:00 23,7 14,4 32,3 18,1 16,3 27 14 38 20 ONO 1019,8 25 54 0,0
14.07.2019 14:00:00 22,7 14,5 31,7 18,1 16,3 26 14 40 21 ONO 1020,0 16 56 0,0
14.07.2019 13:00:00 22,0 14,9 31,6 18,0 16,3 21 11 39 21 ONO 1020,1 20 60 0,0
14.07.2019 12:00:00 21,6 14,5 29,6 18,0 16,3 21 11 37 20 NO 1020,1 16 56 0,0
14.07.2019 11:00:00 20,1 14,0 23,8 18,0 16,3 24 13 39 21 NO 1020,3 12 60 0,0
14.07.2019 10:00:00 17,7 14,0 17,3 18,0 16,3 18 10 27 14 NNO 1020,6 11 50 0,0
14.07.2019 09:00:00 15,4 15,1 14,5 18,1 16,3 15 8 24 13 NO 1020,8 9 35 0,0
14.07.2019 08:00:00 13,3 13,0 12,3 18,2 16,3 11 6 16 9 NO 1020,9 0,5 0 0,0
14.07.2019 07:00:00 12,5 12,2 9,9 18,3 16,3 7 4 13 7 NNO 1020,9 0,1 0 0,0
14.07.2019 06:00:00 11,3 10,8 5,1 18,3 16,3 5 3 10 6 N 1021,2 0,1 0 0,2
14.07.2019 05:00:00 11,6 11,3 4,9 18,5 16,3 8 5 13 7 N 1021,3 1,9 0 0,0
14.07.2019 04:00:00 12,2 11,9 6,3 18,6 16,3 9 5 15 8 NNO 1021,6 3,4 0 0,0
14.07.2019 03:00:00 12,8 12,3 10,9 18,7 16,3 9 5 14 8 NNO 1021,9 0,2 0 0,0
14.07.2019 02:00:00 13,7 13,2 7,3 18,8 16,3 10 6 15 8 N 1022,4 0,3 0 0,0
14.07.2019 01:00:00 13,5 12,7 8,1 18,8 16,3 9 5 14 8 NNO 1022,7 4,0 0 0,0
14.07.2019 00:00:00 13,9 12,3 10,7 18,8 16,3 9 5 19 11 NNO 1022,7 15 0 0,0
13.07.2019 23:00:00 14,8 11,9 12,8 18,8 16,3 12 7 22 12 NNO 1022,5 33 2 0,0
13.07.2019 22:00:00 16,2 11,6 14,6 18,9 16,3 15 8 35 19 NNO 1022,3 57 60 0,0
13.07.2019 21:00:00 18,0 11,8 18,8 18,8 16,3 19 11 39 21 NNO 1021,8 31 60 0,0
13.07.2019 20:00:00 19,2 11,5 23,9 18,7 16,2 22 12 40 21 NNO 1021,8 20 60 0,0
13.07.2019 19:00:00 20,0 12,0 28,3 18,6 16,2 23 12 37 20 NNO 1021,8 20 60 0,0
13.07.2019 18:00:00 20,7 12,7 31,3 18,5 16,2 24 13 44 24 NNO 1022,1 19 60 0,0
13.07.2019 17:00:00 20,8 12,5 33,9 18,4 16,2 28 15 44 24 NNO 1022,3 18 60 0,0
13.07.2019 16:00:00 20,8 12,0 33,7 18,3 16,3 26 14 46 25 NNO 1022,4 17 54 0,0
13.07.2019 15:00:00 20,9 13,6 30,3 18,2 16,2 24 13 43 23 NNO 1022,7 24 54 0,0
13.07.2019 14:00:00 20,8 14,2 24,8 18,2 16,3 19 11 31 17 NNO 1022,9 32 26 0,0
13.07.2019 13:00:00 19,3 13,2 23,0 18,2 16,2 17 9 28 15 NNO 1023,1 42 9 0,0
13.07.2019 12:00:00 18,4 13,7 22,4 18,2 16,2 14 8 29 15 NO 1023,1 46 10 0,0
13.07.2019 11:00:00 17,7 13,0 19,6 18,2 16,2 14 8 28 15 NNO 1023,1 24 27 0,0
13.07.2019 10:00:00 17,0 13,5 16,4 18,3 16,2 19 10 31 17 NNO 1023,2 28 40 0,0
13.07.2019 09:00:00 15,9 14,4 14,6 18,3 16,2 14 7 26 14 NNO 1023,0 26 44 0,0
13.07.2019 08:00:00 14,9 14,4 11,9 18,4 16,2 9 5 20 11 N 1022,8 10 48 0,0
13.07.2019 07:00:00 13,3 12,8 11,1 18,5 16,2 10 5 17 9 N 1022,6 4,3 0 0,2
13.07.2019 06:00:00 13,4 12,9 11,1 18,6 16,2 10 5 18 10 N 1022,6 6 0 0,0
13.07.2019 05:00:00 13,5 13,0 11,2 18,6 16,2 11 6 19 10 N 1022,7 8 0 0,0
13.07.2019 04:00:00 13,6 13,0 10,5 18,8 16,2 7 4 15 8 N 1022,6 9 0 0,0
13.07.2019 03:00:00 13,7 12,9 10,5 18,8 16,2 10 5 16 8 N 1022,7 12 0 0,0
13.07.2019 02:00:00 13,9 12,9 10,5 18,9 16,2 7 4 16 9 NNW 1022,8 12 0 0,2
13.07.2019 01:00:00 14,4 13,4 12,2 18,9 16,2 9 5 22 12 NNW 1022,5 14 0 0,0
13.07.2019 00:00:00 14,8 13,5 12,8 19,0 16,2 10 6 18 10 N 1022,3 19 0 0,0
12.07.2019 23:00:00 15,3 13,3 13,4 19,0 16,2 11 6 23 13 N 1022,1 37 0 0,0
12.07.2019 22:00:00 16,4 13,3 15,3 19,0 16,2 14 8 33 18 N 1021,7 49 56 0,0
12.07.2019 21:00:00 18,1 13,4 18,8 18,9 16,2 20 11 34 18 N 1021,3 34 60 0,0
12.07.2019 20:00:00 19,1 12,8 23,6 18,9 16,2 18 10 33 18 N 1020,9 18 50 0,0
12.07.2019 19:00:00 20,1 13,8 24,3 18,8 16,2 20 11 35 19 NNW 1020,2 17 60 0,0
12.07.2019 18:00:00 19,8 13,0 25,8 18,7 16,1 22 12 40 22 N 1020,2 15 50 0,0
12.07.2019 17:00:00 20,4 14,1 26,7 18,6 16,1 22 12 41 22 N 1020,1 12 51 0,0
12.07.2019 16:00:00 21,4 13,8 30,0 18,5 16,2 21 12 35 19 N 1019,8 16 47 0,0
12.07.2019 15:00:00 20,5 14,4 26,4 18,5 16,2 21 12 35 19 N 1019,5 17 40 0,0
12.07.2019 14:00:00 20,0 14,4 23,7 18,4 16,1 18 10 33 18 N 1019,4 12 24 0,0
12.07.2019 13:00:00 20,1 15,3 23,0 18,5 16,2 17 9 33 18 NNW 1019,1 22 12 0,0
12.07.2019 12:00:00 19,0 15,3 20,8 18,4 16,1 21 11 32 18 NNW 1018,8 4,3 9 0,0
12.07.2019 11:00:00 18,2 15,4 19,2 18,4 16,1 18 10 30 16 NW 1018,5 9 19 0,0
12.07.2019 10:00:00 17,3 15,6 18,1 18,4 16,1 19 11 29 16 NW 1018,2 9 5 0,0
12.07.2019 09:00:00 16,8 16,3 17,2 18,5 16,1 15 8 29 15 NW 1017,8 16 0 0,0
12.07.2019 08:00:00 16,6 16,3 16,9 18,5 16,1 12 6 28 15 NNW 1017,2 8 0 0,0
12.07.2019 07:00:00 16,9 16,4 16,5 18,5 16,1 14 7 24 13 NW 1016,5 3,5 0 0,0
12.07.2019 06:00:00 16,6 16,3 16,5 18,6 16,1 7 4 16 8 W 1016,1 9 0 0,0
12.07.2019 05:00:00 16,6 16,3 16,5 18,6 16,1 6 4 21 12 WNW 1016,0 20 0 0,2
12.07.2019 04:00:00 16,9 16,6 16,9 18,6 16,1 13 7 27 14 WNW 1015,9 2,2 0 0,2
12.07.2019 03:00:00 17,2 16,7 16,8 18,7 16,1 11 6 20 11 WZW 1015,4 2,0 0 0,0
12.07.2019 02:00:00 16,9 16,4 16,6 18,7 16,1 15 8 23 12 ZZW 1015,8 3,2 0 0,0
12.07.2019 01:00:00 16,8 16,2 16,4 18,7 16,1 15 8 25 14 ZW 1016,2 3,1 0 0,0
12.07.2019 00:00:00 16,8 15,8 16,3 18,8 16,1 14 7 26 14 ZZW 1016,2 9 0 0,2
11.07.2019 23:00:00 17,2 14,3 17,2 18,8 16,1 16 8 24 13 ZZW 1016,0 15 0 0,0
11.07.2019 22:00:00 17,9 13,6 18,0 18,7 16,1 13 7 24 13 ZW 1015,7 48 0 0,0
11.07.2019 21:00:00 19,0 13,2 19,8 18,7 16,1 12 7 23 13 WZW 1015,7 44 2 0,0
11.07.2019 20:00:00 19,8 12,3 22,2 18,6 16,1 16 9 29 16 WZW 1015,7 50 39 0,0
11.07.2019 19:00:00 21,5 13,4 28,4 18,5 16,1 18 10 30 16 WZW 1015,5 18 53 0,0
11.07.2019 18:00:00 22,8 11,8 31,4 18,4 16,1 14 7 39 21 W 1015,5 20 60 0,0
11.07.2019 17:00:00 22,9 12,8 32,2 18,3 16,1 16 9 29 16 WZW 1015,6 14 60 0,0
11.07.2019 16:00:00 23,3 13,7 29,3 18,2 16,1 12 6 27 14 W 1015,6 12 57 0,0
11.07.2019 15:00:00 23,1 13,6 29,5 18,2 16,0 14 7 27 15 NW 1015,6 18 36 0,0
11.07.2019 14:00:00 22,3 13,6 29,9 18,1 16,1 13 7 30 16 W 1015,8 25 51 0,0
11.07.2019 13:00:00 21,7 13,3 29,2 18,0 16,1 11 6 22 12 WZW 1015,8 31 56 0,0
11.07.2019 12:00:00 20,6 13,3 24,5 18,0 16,0 12 6 22 12 W 1015,7 31 34 0,0
11.07.2019 11:00:00 18,9 13,1 23,6 18,0 16,0 9 5 23 12 W 1015,8 22 11 0,0
11.07.2019 10:00:00 19,2 13,4 18,2 18,1 16,0 10 5 22 12 WNW 1016,0 14 57 0,0
11.07.2019 09:00:00 16,8 12,9 17,3 18,1 16,0 9 5 16 9 W 1015,9 23 1 0,0
11.07.2019 08:00:00 15,9 14,8 14,8 18,1 16,0 6 3 9 5 WZW 1015,6 7 0 0,0
11.07.2019 07:00:00 15,3 14,5 13,2 18,2 16,0 5 3 10 5 ZW 1015,7 3,5 0 0,0
11.07.2019 06:00:00 15,3 14,3 14,1 18,3 16,0 4 2 9 5 W 1015,7 2,6 0 0,0
11.07.2019 05:00:00 15,4 14,1 14,3 18,3 16,1 4 2 11 6 NW 1015,9 2,5 0 0,0
11.07.2019 04:00:00 15,4 13,2 13,6 18,3 16,0 6 3 14 7 NW 1016,5 3,6 0 0,0
11.07.2019 03:00:00 15,2 11,4 13,3 18,4 16,0 12 7 22 12 WNW 1017,0 13 0 0,0
11.07.2019 02:00:00 15,1 12,0 12,9 18,4 16,0 6 3 10 5 ZO 1016,6 15 0 0,0
11.07.2019 01:00:00 15,0 11,8 12,7 18,5 16,0 2 1 6 3 WZW 1017,4 11 0 0,0
11.07.2019 00:00:00 15,8 11,8 12,8 18,5 16,0 0 0 15 8 N 1017,8 17 0 0,0
10.07.2019 23:00:00 17,1 12,4 14,8 18,5 16,0 8 4 14 8 NW 1018,0 25 0 0,0
10.07.2019 22:00:00 18,5 12,9 17,2 18,4 16,0 8 4 11 6 NW 1017,9 28 0 0,0
10.07.2019 21:00:00 20,6 14,3 21,0 18,4 16,0 6 4 16 8 NW 1017,7 32 0 0,0
10.07.2019 20:00:00 22,1 12,6 23,0 18,3 16,0 13 7 21 12 WZW 1017,8 44 11 0,0
10.07.2019 19:00:00 24,6 12,2 29,9 18,2 16,0 13 7 30 16 WZW 1017,8 33 60 0,0
10.07.2019 18:00:00 25,3 11,5 29,3 18,1 15,9 19 10 31 17 ZZW 1018,3 25 55 0,0
10.07.2019 17:00:00 26,1 12,2 31,5 18,0 16,0 16 8 32 18 WZW 1018,5 19 50 0,0
10.07.2019 16:00:00 25,3 12,8 31,4 17,9 16,0 11 6 27 14 ZZW 1018,8 35 40 0,0
10.07.2019 15:00:00 24,9 12,1 33,8 17,8 16,0 13 7 26 14 ZW 1019,3 30 60 0,0
10.07.2019 14:00:00 24,9 12,1 33,9 17,7 15,9 13 7 23 12 ZW 1019,7 25 60 0,0
10.07.2019 13:00:00 25,5 12,0 32,6 17,7 15,9 15 8 26 14 ZZW 1020,0 18 60 0,0
10.07.2019 12:00:00 24,2 10,5 31,7 17,7 15,9 14 8 24 13 Z 1020,1 32 60 0,0
10.07.2019 11:00:00 23,5 11,5 27,3 17,7 15,9 13 7 25 13 Z 1020,2 20 60 0,0
10.07.2019 10:00:00 21,7 11,1 19,6 17,8 16,0 14 8 22 12 Z 1020,2 14 60 0,0
10.07.2019 09:00:00 18,9 11,0 13,6 17,9 15,9 13 7 19 10 ZZO 1020,4 26 60 0,0
10.07.2019 08:00:00 15,1 12,4 6,8 18,0 15,9 10 5 14 8 ZZO 1020,4 26 60 0,0
10.07.2019 07:00:00 10,9 9,5 5,7 18,1 15,9 3 2 9 5 ZZO 1020,6 18 11 0,0
10.07.2019 06:00:00 10,7 8,6 5,9 18,2 15,9 4 2 9 5 ZO 1020,7 18 0 0,0
10.07.2019 05:00:00 11,9 9,8 6,5 18,3 15,9 8 4 11 6 NO 1020,9 18 0 0,0
10.07.2019 04:00:00 12,3 9,8 6,3 18,4 15,9 5 3 14 7 NNO 1021,3 23 0 0,0

tt = temperatuur
td = dauwpunt
tt 5cm = temperatuur 5cm
tt -20cm = temperatuur -20cm
tt -100cm = temperatuur -100cm
ff = windsnelheid
fx = windstoten
dd = windrichting
ppp = luchtdruk
vv = zicht
sd = Zonneschijnduur
rr = neerslag

Weerstations in de omgeving